Location: Innerarity Island Observatory
(30.3139°N, 87.4867°W)
Time: 17:36:51
(UTC-06:00)

Amateur Radio Satellites - All Passes

Search period start: 19 December 2014 17:06
Search period end: 20 December 2014 17:06
Location: Innerarity Island Observatory, 30.3139°N, 87.4867°W

Satellite Date Start Highest point End Downlink Frequencies (MHz)
Time Altitude Azimuth
SRMSAT 19 Dec 17:09:52 17:14:32 24° 190° (S) 17:19:12 437.500
JAS-2 19 Dec 17:13:25 17:20:21 35° 262° (W) 17:26:58 435.910
PRISM 19 Dec 17:18:00 17:21:17 23° 97° (E) 17:24:31 437.425
CUBESAT XI-V 19 Dec 17:27:31 17:29:49 14° 94° (E) 17:32:07 437.345
Cubesat XI-IV 19 Dec 17:36:58 17:42:18 77° 257° (WSW) 17:47:38 437.490
MOZHAYETS 4 19 Dec 17:44:10 17:47:28 20° 290° (WNW) 17:50:45
CUTE-I 19 Dec 18:11:12 18:16:01 34° 261° (W) 18:20:50 437.470
MaSat-1 19 Dec 18:14:44 18:16:54 26° 67° (ENE) 18:19:11 437.345
HO-68 19 Dec 18:37:40 18:42:20 19° 62° (ENE) 18:47:00 435.675
GONETS M04 19 Dec 18:40:08 18:45:23 18° 278° (W) 18:50:37
STRAND 1 19 Dec 18:45:37 18:50:43 88° 283° (WNW) 18:55:49 437.568
PRISM 19 Dec 18:53:34 18:56:38 20° 290° (WNW) 18:59:41 437.425
SRMSAT 19 Dec 19:00:36 19:03:08 13° 198° (SSW) 19:05:40 437.500
CUBESAT XI-V 19 Dec 19:03:04 19:07:22 41° 286° (WNW) 19:11:39 437.345
GOMX 1 19 Dec 19:11:11 19:12:16 11° 68° (ENE) 19:13:20 467.674
COMPASS 1 19 Dec 19:13:29 19:14:54 12° 68° (ENE) 19:16:19 437.405
SEEDS 19 Dec 19:16:19 19:18:51 16° 70° (ENE) 19:21:24 437.485
CUTE 1.7 + AOD 2 19 Dec 19:17:44 19:20:46 19° 71° (ENE) 19:23:50 437.475
RS-15 19 Dec 19:19:43 19:28:29 25° 45° (NE) 19:37:28 29.354- 29.394
SO-50 19 Dec 19:26:18 19:28:23 13° 107° (ESE) 19:30:29 436.795
CUSAT 1 19 Dec 19:34:07 19:41:11 33° 76° (ENE) 19:48:37 437.405
DOVE 4 19 Dec 19:39:41 19:42:30 18° 71° (ENE) 19:45:19 437.250
Oscar 11 19 Dec 19:51:08 19:53:28 14° 69° (ENE) 19:55:48 145.826/435.025
UKube-1 19 Dec 19:59:13 20:01:21 14° 68° (ENE) 20:03:29 .
CUBEBUG 2 19 Dec 20:04:41 20:06:00 11° 68° (ENE) 20:07:19 437.445
AAUSAT CUBESAT 2 19 Dec 20:11:29 20:15:34 56° 76° (ENE) 20:19:42 437.432
CINEMA 3 19 Dec 20:12:10 20:15:34 25° 72° (ENE) 20:19:00 145.822/145.860
ISS 19 Dec 20:13:44 20:16:08 19° 38° (NE) 20:18:31 145.825
BRITE-PL 19 Dec 20:13:53 20:18:09 73° 259° (WSW) 20:22:18 437.365/2234.400
ZACube-1 19 Dec 20:19:28 20:21:08 12° 68° (ENE) 20:22:49 437.345
DANDE 19 Dec 20:19:55 20:27:49 63° 81° (E) 20:36:25 436.750
CANX-2 19 Dec 20:21:14 20:25:24 57° 260° (W) 20:29:38 2200.000
HO-68 19 Dec 20:22:12 20:29:20 68° 257° (WSW) 20:36:29 435.675
UWE-3 19 Dec 20:42:31 20:46:06 29° 73° (ENE) 20:49:45 435.000/436.395/437.385
FUNcube-1 19 Dec 20:44:35 20:48:00 25° 72° (ENE) 20:51:27 145.935
GOMX 1 19 Dec 20:46:02 20:50:00 41° 261° (W) 20:53:55 467.674
COMPASS 1 19 Dec 20:46:11 20:50:10 43° 261° (W) 20:54:13 437.405
SEEDS 19 Dec 20:50:36 20:54:22 31° 262° (W) 20:58:10 437.485
CUTE 1.7 + AOD 2 19 Dec 20:52:58 20:56:29 25° 263° (W) 21:00:02 437.475
AISAT 19 Dec 20:58:23 21:01:46 22° 71° (ENE) 21:05:09 437.250
DX 1 19 Dec 21:00:33 21:04:54 83° 77° (ENE) 21:09:15 434.975-435.025
SO-50 19 Dec 21:04:08 21:08:25 45° 301° (WNW) 21:12:51 436.795
DELFI C3 19 Dec 21:08:40 21:12:45 71° 259° (W) 21:16:52 145.870
50 SAT 19 Dec 21:11:43 21:14:54 23° 72° (ENE) 21:18:05 437.505
ANTELSAT 19 Dec 21:15:03 21:16:27 11° 93° (E) 21:17:50 437.575/2403.000
CUSAT 1 19 Dec 21:16:40 21:24:16 48° 268° (W) 21:32:16 437.405
DOVE 4 19 Dec 21:16:41 21:20:05 24° 263° (W) 21:23:29 437.250
HUMSAT D 19 Dec 21:25:17 21:29:12 45° 75° (ENE) 21:33:11 437.325/437.525
Oscar 11 19 Dec 21:25:17 21:29:15 36° 262° (W) 21:33:16 145.826/435.025
RS-15 19 Dec 21:30:43 21:42:10 85° 245° (WSW) 21:54:08 29.354- 29.394
UKube-1 19 Dec 21:33:04 21:37:07 39° 260° (W) 21:41:10 .
BEESAT 3 19 Dec 21:37:02 21:39:34 16° 53° (NE) 21:42:04 437.485
CUBEBUG 2 19 Dec 21:38:20 21:42:15 41° 261° (W) 21:46:15 437.445
TIGRISAT 19 Dec 21:48:47 21:52:52 29° 97° (E) 21:56:56 435.000
ISS 19 Dec 21:49:52 21:52:43 28° 231° (SW) 21:55:32 145.825
CINEMA 3 19 Dec 21:49:56 21:52:44 18° 265° (W) 21:55:33 145.822/145.860
ESTCUBE 1 19 Dec 21:50:23 21:54:26 33° 73° (ENE) 21:58:29 437.505/2401.250
YUBILEINY 19 Dec 21:50:47 21:52:40 11° 79° (ENE) 21:54:33 435.215
VELOX 1 19 Dec 21:51:02 21:55:27 85° 258° (WSW) 21:59:53 145.980
ZACube-1 19 Dec 21:53:13 21:57:05 39° 261° (W) 22:01:02 437.345
PCSat 19 Dec 21:53:28 21:55:29 12° 52° (NE) 21:57:30 145.827
POPSAT HIP 1 19 Dec 22:01:09 22:04:34 23° 97° (E) 22:07:58 437.405
DANDE 19 Dec 22:04:37 22:10:50 25° 272° (W) 22:17:24 436.750
BEESAT 2 19 Dec 22:14:56 22:18:48 36° 59° (ENE) 22:22:36 435.950
UNISAT 6 19 Dec 22:16:55 22:21:37 65° 101° (E) 22:26:17 437.425
UWE-3 19 Dec 22:20:09 22:22:39 16° 265° (W) 22:25:11 435.000/436.395/437.385
TISAT 1 19 Dec 22:21:00 22:23:14 14° 69° (ENE) 22:25:28 437.305
SPROUT 19 Dec 22:21:25 22:23:26 13° 69° (ENE) 22:25:27 437.525
FUNcube-1 19 Dec 22:21:25 22:24:17 18° 265° (W) 22:27:11 145.935
DUCHIFAT 1 19 Dec 22:29:02 22:33:11 52° 100° (E) 22:37:21 145.980
BUGSAT 1 19 Dec 22:32:48 22:36:41 44° 100° (E) 22:40:36 437.445
AISAT 19 Dec 22:34:38 22:38:13 24° 263° (W) 22:41:49 437.250
QB50P2 19 Dec 22:41:47 22:46:04 81° 102° (ESE) 22:50:21 145.880/145.840
CUBEBUG 1 19 Dec 22:43:12 22:47:31 58° 259° (W) 22:51:49 437.445
50 SAT 19 Dec 22:47:14 22:50:01 18° 264° (W) 22:52:50 437.505
ANTELSAT 19 Dec 22:48:50 22:53:26 53° 285° (WNW) 22:58:01 437.575/2403.000
POLYITAN 1 19 Dec 22:50:16 22:54:34 79° 283° (WNW) 22:58:51 437.675
NANOSAT C BR1 19 Dec 22:53:22 22:57:37 73° 284° (WNW) 23:01:52 145.865
QB50P1 19 Dec 23:07:45 23:11:50 47° 285° (WNW) 23:15:56 145.935-145.965
BEESAT 3 19 Dec 23:14:02 23:17:50 35° 248° (WSW) 23:21:34 437.485
AIST 2 19 Dec 23:15:13 23:19:30 81° 63° (ENE) 23:23:41 435.215
TIGRISAT 19 Dec 23:25:50 23:29:22 22° 290° (WNW) 23:32:55 435.000
ESTCUBE 1 19 Dec 23:28:21 23:31:18 17° 265° (W) 23:34:16 437.505/2401.250
PCSat 19 Dec 23:34:02 23:39:27 78° 247° (WSW) 23:44:50 145.827
POPSAT HIP 1 19 Dec 23:37:03 23:40:17 21° 289° (WNW) 23:43:32 437.405
YUBILEINY 19 Dec 23:39:17 23:48:03 83° 94° (E) 23:56:47 435.215
RS-15 19 Dec 23:47:09 23:53:03 16° 260° (W) 23:59:06 29.354- 29.394
BEESAT 2 19 Dec 23:54:31 23:56:40 14° 252° (WSW) 23:58:49 435.950
TISAT 1 19 Dec 23:54:54 23:58:43 34° 261° (W) 00:02:34 437.305
SPROUT 19 Dec 23:55:09 23:59:08 38° 261° (W) 00:03:08 437.525
O/OREOS (USA 219) 20 Dec 00:01:07 00:05:28 56° 106° (ESE) 00:09:49 437.305
BUGSAT 1 20 Dec 00:11:16 00:11:45 10° 292° (WNW) 00:12:14 437.445
SWISSCUBE 20 Dec 00:16:25 00:21:02 50° 74° (ENE) 00:25:40 437.505
ITUPSAT 1 20 Dec 00:16:36 00:21:09 44° 74° (ENE) 00:25:43 437.325
AUBIESAT-1 20 Dec 00:26:35 00:30:50 33° 68° (ENE) 00:35:12 437.475
BEESAT 20 Dec 00:41:24 00:46:11 89° 77° (ENE) 00:51:00 436.000
M-CUBED/EXP-1 PRIME 20 Dec 00:51:00 00:55:43 70° 72° (ENE) 01:00:36 437.505
VERMONT LUNAR 20 Dec 01:08:43 01:11:23 20° 141° (SE) 01:14:02 437.305
Oscar 19 20 Dec 01:16:44 01:21:57 78° 102° (ESE) 01:27:08 437.125/150
PHONESAT 2.4 20 Dec 01:19:10 01:21:19 15° 140° (SE) 01:23:29 2401.200-2431.200
Gurwin Techsat 1B 20 Dec 01:22:36 01:25:52 16° 94° (E) 01:29:06 435.225
ITAMSAT 1 20 Dec 01:31:01 01:35:43 35° 99° (E) 01:40:24 435.822/435.867
YUBILEINY 20 Dec 01:40:55 01:45:41 16° 290° (WNW) 01:50:28 435.215
O/OREOS (USA 219) 20 Dec 01:44:43 01:45:10 10° 300° (WNW) 01:45:37 437.305
STARS 20 Dec 01:56:28 02:00:49 74° 76° (ENE) 02:05:11 437.465
ITUPSAT 1 20 Dec 01:56:43 01:59:10 14° 266° (W) 02:01:37 437.325
SWISSCUBE 20 Dec 01:57:08 01:59:04 12° 266° (W) 02:01:00 437.505
KKS-1 20 Dec 01:58:26 02:02:49 65° 259° (WSW) 02:07:13 437.445
AUBIESAT-1 20 Dec 02:02:12 02:05:44 21° 261° (W) 02:09:23 437.475
VERMONT LUNAR 20 Dec 02:46:02 02:49:30 55° 334° (NNW) 02:52:58 437.305
PHONESAT 2.4 20 Dec 02:56:05 02:59:42 74° 331° (NNW) 03:03:19 2401.200-2431.200
Gurwin Techsat 1B 20 Dec 03:00:55 03:05:57 45° 287° (WNW) 03:10:58 435.225
AIST 1 20 Dec 03:02:28 03:06:16 31° 80° (E) 03:10:02
MOZHAYETS 4 20 Dec 03:04:14 03:06:55 15° 69° (ENE) 03:09:36
ITAMSAT 1 20 Dec 03:11:07 03:14:55 21° 291° (WNW) 03:18:44 435.822/435.867
HORYU 2 20 Dec 03:26:01 03:30:26 57° 285° (WNW) 03:34:50 437.375
GONETS M04 20 Dec 03:42:51 03:47:12 15° 80° (E) 03:51:31
AO-7 20 Dec 03:54:07 04:02:27 68° 105° (ESE) 04:10:44 29.400- 29.500
VERMONT LUNAR 20 Dec 04:25:46 04:28:18 18° 349° (N) 04:30:50 437.305
JAS-2 20 Dec 04:30:01 04:35:14 45° 99° (E) 04:40:09 435.910
PHONESAT 2.4 20 Dec 04:35:58 04:38:46 21° 347° (NNW) 04:41:36 2401.200-2431.200
MOZHAYETS 4 20 Dec 04:39:25 04:43:45 39° 261° (W) 04:48:07
AIST 1 20 Dec 04:41:20 04:43:34 14° 273° (W) 04:45:47
CUTE-I 20 Dec 04:56:00 04:58:39 14° 94° (E) 05:01:16 437.470
GONETS M04 20 Dec 05:33:58 05:42:48 84° 275° (W) 05:51:42
PRISM 20 Dec 05:37:31 05:41:41 59° 259° (W) 05:45:53 437.425
SO-50 20 Dec 05:41:00 05:45:29 35° 58° (ENE) 05:49:57 436.795
AO-7 20 Dec 05:48:27 05:54:27 23° 300° (WNW) 06:00:28 29.400- 29.500
STRAND 1 20 Dec 05:55:42 06:00:47 74° 76° (ENE) 06:05:53 437.568
Cubesat XI-IV 20 Dec 06:00:11 06:05:30 71° 102° (ESE) 06:10:47 437.490
CUBESAT XI-V 20 Dec 06:00:18 06:05:00 84° 258° (WSW) 06:09:41 437.345
VERMONT LUNAR 20 Dec 06:05:08 06:07:29 17° 7° (N) 06:09:49 437.305
PHONESAT 2.4 20 Dec 06:15:55 06:18:19 16° 4° (N) 06:20:42 2401.200-2431.200
JAS-2 20 Dec 06:16:36 06:19:50 16° 295° (WNW) 06:22:58 435.910
CUTE-I 20 Dec 06:33:46 06:38:55 53° 286° (WNW) 06:44:04 437.470
SO-50 20 Dec 07:22:08 07:25:47 21° 251° (WSW) 07:29:24 436.795
MaSat-1 20 Dec 07:29:20 07:30:01 11° 107° (ESE) 07:30:42 437.345
GONETS M04 20 Dec 07:37:33 07:40:47 12° 292° (WNW) 07:44:02
VERMONT LUNAR 20 Dec 07:43:03 07:46:24 39° 23° (NNE) 07:49:44 437.305
Cubesat XI-IV 20 Dec 07:43:26 07:44:55 11° 296° (WNW) 07:46:23 437.490
PHONESAT 2.4 20 Dec 07:54:21 07:57:41 33° 21° (NNE) 08:01:01 2401.200-2431.200
HO-68 20 Dec 07:56:48 08:03:04 33° 99° (E) 08:09:18 435.675
AAUSAT CUBESAT 2 20 Dec 08:02:24 08:04:42 14° 94° (E) 08:07:00 437.432
CANX-2 20 Dec 08:12:44 08:16:45 37° 98° (E) 08:20:43 2200.000
CINEMA 3 20 Dec 08:14:11 08:15:50 12° 94° (E) 08:17:30 145.822/145.860
BRITE-PL 20 Dec 08:23:07 08:27:52 55° 101° (E) 08:32:59 437.365/2234.400
COMPASS 1 20 Dec 08:35:50 08:39:55 45° 99° (E) 08:43:58 437.405
SEEDS 20 Dec 08:40:36 08:44:52 65° 101° (E) 08:49:05 437.485
UWE-3 20 Dec 08:40:37 08:41:36 11° 93° (E) 08:42:35 435.000/436.395/437.385
CUSAT 1 20 Dec 08:41:22 08:44:02 23° 87° (E) 08:47:17 437.405
CUTE 1.7 + AOD 2 20 Dec 08:43:22 08:47:41 85° 102° (ESE) 08:51:59 437.475
TIGRISAT 20 Dec 08:44:24 08:46:10 12° 67° (ENE) 08:47:57 435.000
GOMX 1 20 Dec 08:52:08 08:57:01 82° 102° (ESE) 09:02:13 467.674
DX 1 20 Dec 08:55:33 08:58:56 22° 97° (E) 09:02:19 434.975-435.025
DELFI C3 20 Dec 08:55:42 08:59:05 24° 97° (E) 09:02:26 145.870
UNISAT 6 20 Dec 09:11:12 09:14:51 27° 72° (ENE) 09:18:34 437.425
HUMSAT D 20 Dec 09:17:23 09:19:20 13° 94° (E) 09:21:18 437.325/437.525
DUCHIFAT 1 20 Dec 09:17:24 09:20:22 19° 71° (ENE) 09:23:21 145.980
Oscar 11 20 Dec 09:18:07 09:22:26 61° 101° (E) 09:26:43 145.826/435.025
BUGSAT 1 20 Dec 09:19:09 09:21:34 15° 70° (ENE) 09:23:58 437.445
DOVE 4 20 Dec 09:19:44 09:24:33 68° 283° (WNW) 09:29:39 437.250
VERMONT LUNAR 20 Dec 09:21:31 09:24:39 30° 217° (SW) 09:27:47 437.305
UKube-1 20 Dec 09:26:24 09:30:38 53° 101° (E) 09:34:51 .
QB50P2 20 Dec 09:29:54 09:33:30 28° 72° (ENE) 09:37:07 145.880/145.840
DANDE 20 Dec 09:30:25 09:33:28 80° 279° (W) 09:37:27 436.750
PHONESAT 2.4 20 Dec 09:32:58 09:36:25 41° 215° (SW) 09:39:51 2401.200-2431.200
CUBEBUG 2 20 Dec 09:34:39 09:39:17 61° 101° (E) 09:43:59 437.445
AAUSAT CUBESAT 2 20 Dec 09:36:36 09:40:24 33° 287° (WNW) 09:44:11 437.432
POLYITAN 1 20 Dec 09:38:19 09:42:09 35° 74° (ENE) 09:46:00 437.675
RS-15 20 Dec 09:38:35 09:46:21 23° 103° (ESE) 09:54:01 29.354- 29.394
NANOSAT C BR1 20 Dec 09:40:52 09:44:45 38° 74° (ENE) 09:48:38 145.865
ANTELSAT 20 Dec 09:42:20 09:46:36 67° 76° (ENE) 09:51:01 437.575/2403.000
HO-68 20 Dec 09:44:15 09:50:40 38° 292° (WNW) 09:57:04 435.675
ZACube-1 20 Dec 09:47:12 09:51:42 60° 101° (E) 09:56:14 437.345
VELOX 1 20 Dec 09:48:07 09:51:56 28° 98° (E) 09:55:46 145.980
CINEMA 3 20 Dec 09:48:29 09:53:11 55° 284° (WNW) 09:58:01 145.822/145.860
CANX-2 20 Dec 09:50:04 09:52:18 14° 291° (WNW) 09:54:31 2200.000
ESTCUBE 1 20 Dec 09:51:46 09:52:40 11° 93° (E) 09:53:34 437.505/2401.250
QB50P1 20 Dec 09:54:55 09:59:03 59° 76° (ENE) 10:03:11 145.935-145.965
YUBILEINY 20 Dec 09:57:29 10:04:55 31° 76° (ENE) 10:12:17 435.215
BRITE-PL 20 Dec 10:03:57 10:05:59 13° 291° (WNW) 10:08:04 437.365/2234.400
UWE-3 20 Dec 10:13:48 10:18:19 54° 285° (WNW) 10:22:52 435.000/436.395/437.385
COMPASS 1 20 Dec 10:13:56 10:15:10 11° 292° (WNW) 10:16:24 437.405
FUNcube-1 20 Dec 10:14:04 10:18:35 65° 284° (WNW) 10:23:08 145.935
O/OREOS (USA 219) 20 Dec 10:16:47 10:21:04 41° 68° (ENE) 10:25:20 437.305
TIGRISAT 20 Dec 10:18:23 10:22:27 43° 261° (W) 10:26:38 435.000
POPSAT HIP 1 20 Dec 10:23:34 10:27:42 58° 259° (W) 10:31:51 437.405
CUSAT 1 20 Dec 10:26:10 10:27:20 11° 294° (WNW) 10:28:35 437.405
JUGNU 20 Dec 10:29:05 10:32:57 18° 165° (SSE) 10:36:49 437.505
AISAT 20 Dec 10:30:33 10:35:00 81° 283° (WNW) 10:39:27 437.250
DELFI C3 20 Dec 10:31:16 10:34:08 19° 289° (WNW) 10:36:58 145.870
DX 1 20 Dec 10:31:37 10:35:02 23° 289° (WNW) 10:38:27 434.975-435.025
50 SAT 20 Dec 10:31:48 10:35:58 88° 282° (WNW) 10:40:08 437.505
CUBEBUG 1 20 Dec 10:38:12 10:42:15 39° 99° (E) 10:46:18 437.445
UNISAT 6 20 Dec 10:48:33 10:51:35 19° 265° (W) 10:54:41 437.425
HUMSAT D 20 Dec 10:51:11 10:55:13 39° 286° (WNW) 10:59:16 437.325/437.525
DUCHIFAT 1 20 Dec 10:52:34 10:56:01 25° 263° (W) 10:59:30 145.980
BUGSAT 1 20 Dec 10:53:09 10:56:46 30° 262° (W) 11:00:22 437.445
UKube-1 20 Dec 11:06:07 11:06:16 10° 294° (WNW) 11:06:25 .
QB50P2 20 Dec 11:06:39 11:09:23 17° 265° (W) 11:12:08 145.880/145.840
CUBEBUG 2 20 Dec 11:14:33 11:15:26 11° 293° (WNW) 11:16:18 437.445
POLYITAN 1 20 Dec 11:16:12 11:18:10 13° 266° (W) 11:20:08 437.675
NANOSAT C BR1 20 Dec 11:19:00 11:20:43 12° 266° (W) 11:22:25 145.865
VELOX 1 20 Dec 11:25:11 11:28:17 19° 290° (WNW) 11:31:22 145.980
ESTCUBE 1 20 Dec 11:25:24 11:29:44 49° 285° (WNW) 11:34:02 437.505/2401.250
ZACube-1 20 Dec 11:27:15 11:27:31 10° 293° (WNW) 11:27:48 437.345
BEESAT 3 20 Dec 11:28:31 11:29:13 10° 107° (ESE) 11:29:54 437.485
SRMSAT 20 Dec 11:32:32 11:35:42 15° 163° (SSE) 11:38:52 437.500
TISAT 1 20 Dec 11:45:14 11:49:24 56° 101° (E) 11:53:33 437.305
RS-15 20 Dec 11:46:34 11:57:32 73° 298° (WNW) 12:08:29 29.354- 29.394
SPROUT 20 Dec 11:47:26 11:51:40 55° 100° (E) 11:55:53 437.525
YUBILEINY 20 Dec 11:53:39 12:01:45 46° 271° (W) 12:09:52 435.215
O/OREOS (USA 219) 20 Dec 11:58:01 12:00:01 13° 261° (W) 12:02:01 437.305
BEESAT 2 20 Dec 12:05:03 12:08:32 28° 111° (ESE) 12:12:05 435.950
CUBEBUG 1 20 Dec 12:16:09 12:18:14 13° 292° (WNW) 12:20:20 437.445
JUGNU 20 Dec 12:16:27 12:21:27 28° 174° (S) 12:26:28 437.505
SWISSCUBE 20 Dec 12:23:36 12:27:07 21° 96° (E) 12:30:38 437.505
ITUPSAT 1 20 Dec 12:24:08 12:27:26 19° 96° (E) 12:30:43 437.325
PCSat 20 Dec 12:27:21 12:32:03 31° 108° (ESE) 12:36:46 145.827
Oscar 19 20 Dec 12:27:51 12:32:53 62° 75° (ENE) 12:37:58 437.125/150
Gurwin Techsat 1B 20 Dec 12:38:44 12:41:47 16° 67° (ENE) 12:44:49 435.225
ITAMSAT 1 20 Dec 12:43:39 12:48:07 30° 71° (ENE) 12:52:35 435.822/435.867
BEESAT 20 Dec 12:47:57 12:52:19 36° 99° (E) 12:56:40 436.000
ISS 20 Dec 12:49:45 12:53:00 59° 315° (NW) 12:56:16 145.825
BEESAT 3 20 Dec 13:02:59 13:06:53 45° 300° (WNW) 13:10:52 437.485
AIST 2 20 Dec 13:08:00 13:12:10 71° 115° (ESE) 13:16:25 435.215
SRMSAT 20 Dec 13:19:30 13:24:20 26° 171° (S) 13:29:09 437.500
BEESAT 2 20 Dec 13:43:48 13:46:45 19° 305° (NW) 13:49:44 435.950
AUBIESAT-1 20 Dec 13:49:58 13:54:06 62° 105° (ESE) 13:57:52 437.475
STARS 20 Dec 13:53:02 13:56:29 22° 97° (E) 13:59:56 437.465
KKS-1 20 Dec 13:55:38 13:59:47 37° 99° (E) 14:03:56 437.445
SWISSCUBE 20 Dec 14:00:49 14:04:55 30° 289° (WNW) 14:09:01 437.505
ITUPSAT 1 20 Dec 14:01:05 14:05:19 33° 288° (WNW) 14:09:32 437.325
JUGNU 20 Dec 14:04:57 14:10:02 29° 184° (S) 14:15:06 437.505
RS-15 20 Dec 14:05:25 14:12:03 18° 322° (NW) 14:18:47 29.354- 29.394
PCSat 20 Dec 14:10:51 14:15:23 27° 302° (WNW) 14:19:56 145.827
Oscar 19 20 Dec 14:11:16 14:12:31 11° 267° (W) 14:13:47 437.125/150
M-CUBED/EXP-1 PRIME 20 Dec 14:15:27 14:19:35 52° 290° (WNW) 14:23:20 437.505
Gurwin Techsat 1B 20 Dec 14:16:08 14:21:15 51° 260° (W) 14:26:25 435.225
HORYU 2 20 Dec 14:18:40 14:23:04 64° 75° (ENE) 14:27:30 437.375
ITAMSAT 1 20 Dec 14:23:23 14:27:31 24° 263° (W) 14:31:40 435.822/435.867
BEESAT 20 Dec 14:26:44 14:29:50 18° 292° (WNW) 14:32:56 436.000
JAS-2 20 Dec 14:37:25 14:41:11 15° 64° (ENE) 14:44:49 435.910
AO-7 20 Dec 14:46:34 14:54:35 56° 69° (ENE) 15:02:39 29.400- 29.500
SRMSAT 20 Dec 15:07:57 15:13:03 30° 181° (S) 15:18:08 437.500
AIST 1 20 Dec 15:26:21 15:29:56 25° 90° (E) 15:33:31
STARS 20 Dec 15:29:15 15:32:50 24° 289° (WNW) 15:36:25 437.465
KKS-1 20 Dec 15:33:33 15:36:04 15° 292° (WNW) 15:38:35 437.445
GONETS M04 20 Dec 15:52:07 16:00:03 37° 77° (ENE) 16:07:53
JUGNU 20 Dec 15:54:19 15:58:34 20° 194° (SSW) 16:02:47 437.505
CUTE-I 20 Dec 16:12:57 16:15:35 14° 66° (ENE) 16:18:12 437.470
JAS-2 20 Dec 16:17:35 16:25:24 89° 256° (WSW) 16:32:41 435.910
MOZHAYETS 4 20 Dec 16:40:11 16:44:49 77° 102° (ESE) 16:49:23
AO-7 20 Dec 16:41:00 16:47:33 26° 262° (W) 16:54:12 29.400- 29.500
SRMSAT 20 Dec 16:57:12 17:01:44 23° 191° (SSW) 17:06:16 437.500
